Theta_e
354 353 352 351 350 351 350 350 351 351 352 352 353 352 352 352 353 352 352 350 347 345 344 342 342 341 341 339 338 337 337 334 334 334 334 333 330 331 334 333 332 330
354 354 354 353 351 352 351 352 351 352 352 352 353 353 353 352 352 352 350 348 347 344 342 340 340 340 339 337 337 335 335 334 332 336 333 332 332 332 332 332 332 332
354 354 354 352 351 351 351 352 352 352 352 352 352 352 352 353 351 351 349 347 345 343 341 340 339 339 338 337 337 335 334 334 332 334 334 333 332 331 331 331 331 334
354 354 354 354 353 352 352 352 352 351 351 350 350 351 352 352 351 349 348 351 344 342 341 339 338 338 337 337 336 334 334 334 334 334 334 334 334 332 332 334 335 335
354 354 355 355 354 353 353 351 351 351 350 350 351 350 351 351 350 348 347 346 342 341 340 338 338 337 337 336 335 334 334 333 334 334 333 332 334 334 333 335 333 331
355 355 355 355 355 353 352 352 351 351 350 350 350 351 350 351 349 348 346 345 341 340 339 338 338 337 336 335 335 334 334 333 334 333 333 333 334 336 335 335 333 332
354 355 355 356 355 354 353 352 351 351 351 350 350 350 350 350 349 348 346 345 340 340 338 337 337 337 336 335 334 333 334 333 333 333 332 332 334 336 335 334 333 332
355 355 356 356 355 354 353 353 352 351 351 351 350 350 349 349 348 348 346 344 341 339 338 338 338 337 336 336 334 333 333 335 333 332 332 331 332 334 334 336 333 331
355 355 355 355 355 354 353 353 353 351 351 350 350 349 350 348 348 347 346 344 341 340 339 338 338 337 337 336 335 334 333 334 334 333 332 331 331 332 334 334 333 333
355 355 355 355 354 354 354 353 353 352 352 351 350 350 349 348 347 346 345 343 341 340 339 338 338 337 336 336 336 335 334 334 333 333 333 332 332 332 332 332 332 332
354 355 354 354 354 355 354 354 353 353 352 350 350 349 349 348 346 345 344 343 341 340 339 338 338 337 336 336 336 336 336 335 334 334 334 333 333 332 335 332 332 331
353 354 354 354 354 354 354 354 353 352 352 351 350 349 348 348 346 345 343 342 341 340 339 338 338 338 337 336 336 335 335 336 335 335 335 335 334 333 333 334 333 332
353 353 354 354 355 355 355 354 353 353 352 351 350 349 348 347 346 345 344 342 341 340 339 339 338 338 338 337 336 336 335 335 335 335 334 335 335 335 334 334 333 333
354 354 354 355 355 355 355 354 354 353 352 351 350 348 347 347 346 345 344 343 342 340 340 339 338 338 338 337 337 336 335 334 334 334 334 334 334 334 335 334 334 333
354 354 354 354 355 355 354 353 353 353 352 351 350 348 348 347 347 345 344 343 342 341 340 340 339 338 338 338 337 336 336 335 334 334 334 333 334 334 335 335 336 336
354 354 354 354 353 353 353 354 353 352 352 350 349 348 347 347 346 345 344 343 342 341 340 340 339 339 335 327 331 337 337 336 336 335 334 334 334 334 334 335 336 336
354 354 354 353 353 353 353 353 353 352 351 350 349 348 347 346 346 345 344 343 342 341 340 340 340 339 328 325 328 332 337 337 335 335 335 334 334 334 333 334 334 334
353 353 353 353 353 352 353 353 352 351 350 349 348 347 347 346 345 345 345 344 343 342 341 340 340 331 325 325 327 328 332 337 336 334 334 334 334 334 334 334 334 333
353 353 353 352 352 353 353 352 352 350 349 347 346 347 347 346 345 346 345 344 343 341 341 341 341 329 324 324 326 327 329 334 335 334 334 334 334 333 333 333 333 333
353 352 352 352 353 352 352 352 351 350 349 347 347 346 346 346 346 346 346 345 344 342 341 341 341 327 323 322 324 325 328 332 335 335 334 333 333 333 333 333 332 332
353 352 352 352 352 352 352 351 351 350 348 347 346 346 345 345 346 346 346 346 345 344 342 341 342 323 321 320 321 321 325 330 335 336 333 333 333 334 333 333 333 333
353 352 351 351 352 352 351 351 351 350 349 348 347 347 346 346 347 347 347 346 345 344 343 341 341 319 320 319 319 320 324 334 334 333 333 333 333 333 333 334 334 334
353 352 351 351 351 351 351 351 351 350 350 349 347 347 346 346 346 347 347 347 345 344 343 342 336 320 318 317 318 318 324 334 333 332 331 331 331 332 334 334 334 334
353 352 351 351 351 351 351 351 352 352 351 350 348 347 346 346 346 346 346 346 344 343 344 341 335 319 315 315 317 317 325 333 331 330 329 330 331 334 334 334 336 342
352 352 352 351 351 352 352 351 351 351 351 351 350 349 348 347 346 345 343 343 344 344 342 340 333 318 313 315 316 316 326 334 333 331 329 330 332 333 333 334 334 340
351 351 352 352 352 352 353 353 353 352 351 350 350 349 348 347 345 343 341 341 341 341 341 340 332 324 320 314 315 315 320 335 334 330 328 329 332 332 331 330 332 333
Wind_Speed
14 12 13 12 11 10 10 10 9 10 10 9 9 9 10 9 9 10 10 9 9 9 10 9 8 8 8 7 7 6 6 7 6 6 6 6 5 5 6 4 3 4
16 15 12 11 10 9 9 11 11 11 11 10 9 9 9 9 10 10 10 10 9 9 10 9 8 8 8 8 7 7 6 6 7 4 6 6 5 5 5 4 5 3
16 15 14 13 12 12 12 10 10 10 10 11 10 9 9 9 10 10 10 10 10 10 10 9 8 8 9 8 8 8 8 7 7 5 5 6 5 5 4 4 3 6
17 17 15 14 12 12 11 11 10 10 9 9 10 10 10 9 10 11 10 11 10 10 10 9 9 8 8 8 9 8 8 7 6 6 6 4 4 5 5 4 4 4
18 16 14 12 11 11 11 11 12 12 11 11 11 10 10 10 11 11 11 11 11 11 10 10 8 8 8 8 9 8 7 7 6 6 6 6 5 5 5 5 5 5
15 15 14 13 13 12 12 12 12 13 12 12 12 11 11 12 11 12 12 12 11 11 11 10 9 8 9 9 8 8 8 8 7 7 7 7 5 5 4 5 5 5
16 15 16 13 13 14 13 12 12 12 13 12 10 12 12 12 13 13 13 13 12 11 12 11 10 9 8 9 9 9 8 8 7 7 8 6 5 6 5 5 5 5
17 16 15 14 15 14 14 13 12 12 12 11 13 12 12 14 14 13 13 13 13 12 12 11 11 11 10 9 10 10 9 7 8 8 7 6 5 5 6 5 5 5
16 15 15 15 16 14 15 14 13 12 12 14 13 12 12 13 14 14 14 13 13 12 12 12 12 11 10 10 11 11 10 8 8 8 8 8 7 7 6 5 5 5
17 16 16 16 16 15 16 15 14 13 13 14 13 12 13 12 13 13 13 14 14 13 13 13 12 11 11 10 11 10 9 9 8 8 7 7 8 7 6 6 7 6
18 16 17 17 17 15 17 16 15 14 13 14 13 13 13 12 11 12 13 14 14 15 14 13 13 12 12 11 9 9 10 9 8 7 7 8 8 8 7 7 7 7
18 17 18 19 18 17 17 17 15 15 14 13 14 14 13 13 13 12 13 15 14 14 14 13 12 12 12 12 12 10 9 8 8 8 8 8 7 7 7 7 8 7
19 18 18 18 18 17 15 15 15 16 15 15 13 14 14 13 13 14 13 13 14 12 13 13 12 12 12 12 10 10 10 10 10 10 9 8 7 8 7 7 7 7
19 18 17 17 16 15 15 15 15 14 14 13 12 13 13 14 14 14 12 11 12 12 12 12 12 12 11 11 11 11 10 11 11 10 10 9 8 7 7 7 7 7
17 16 15 15 15 15 15 15 15 14 13 12 12 12 11 12 12 12 11 11 10 11 12 11 12 12 11 11 11 12 11 12 11 11 10 10 9 8 8 8 7 8
16 15 15 15 15 16 16 16 14 13 12 12 12 12 11 10 10 10 11 11 12 11 10 10 10 9 13 18 16 13 13 11 10 10 10 10 9 8 8 8 9 8
15 15 15 16 16 16 14 13 13 12 11 11 11 10 10 10 10 11 11 11 13 12 11 10 10 10 16 18 19 19 14 12 11 11 10 10 10 10 11 10 8 7
16 16 15 16 15 15 14 13 11 11 10 10 10 11 10 10 11 12 12 11 10 10 12 12 11 13 18 19 20 20 17 12 11 10 10 10 10 11 10 9 9 8
16 15 16 15 15 15 13 11 11 11 10 10 11 11 10 12 12 11 11 11 11 13 13 12 10 14 18 20 20 21 19 14 12 11 10 10 10 10 9 9 8 7
15 15 15 15 14 12 11 11 11 12 10 9 9 10 12 11 11 12 12 13 13 13 12 11 11 14 20 20 21 19 18 18 13 7 1 4 7 8 8 9 8 8
15 15 15 13 12 12 12 12 12 10 11 11 11 12 13 13 13 14 13 13 12 12 11 11 11 16 19 20 19 18 19 16 5 5 5 9 9 9 10 10 8 8
16 15 15 12 12 12 13 14 13 13 13 11 11 11 10 10 11 11 12 13 13 12 12 12 9 18 19 19 19 19 19 11 10 10 8 11 11 10 10 8 6 6
16 16 14 13 14 14 15 15 15 14 14 12 12 12 12 13 13 13 12 12 12 12 13 11 8 16 20 20 20 20 15 10 9 8 10 10 11 10 8 6 5 6
16 16 15 15 15 16 16 15 15 14 15 14 15 13 14 14 13 11 10 11 13 14 13 12 9 14 20 20 21 21 17 12 10 9 10 10 9 8 5 5 6 12
16 16 16 16 17 17 16 16 17 17 14 13 13 13 13 11 10 11 10 10 12 12 14 13 8 12 19 21 21 20 17 12 11 9 9 8 7 6 4 6 6 9
15 16 16 16 17 16 16 17 15 13 13 14 13 12 12 11 11 11 12 11 10 9 9 10 10 11 15 20 21 21 21 14 9 8 8 7 5 6 6 5 6 5
Wind_Direction
206 207 205 201 199 193 186 186 187 189 193 187 184 186 187 186 180 181 183 177 176 181 188 194 189 185 184 180 178 170 173 181 178 174 177 179 177 173 195 199 190 167
205 207 207 203 199 194 193 190 187 189 191 187 186 184 187 178 185 181 181 179 177 185 187 189 186 181 179 178 176 168 178 179 184 177 175 179 180 173 188 183 191 187
202 206 206 202 198 193 193 192 188 191 189 188 183 183 182 182 181 183 181 179 182 186 188 188 177 176 175 177 172 172 175 182 186 185 174 188 180 175 202 173 179 175
202 204 205 203 198 194 192 190 191 190 188 184 187 183 181 182 180 181 180 182 185 188 190 182 179 173 171 170 170 174 177 181 186 175 184 189 185 184 196 166 175 172
200 202 203 203 199 197 193 194 192 191 190 188 184 182 181 180 180 181 182 185 186 189 188 183 175 172 169 168 170 172 174 182 188 178 182 189 199 187 201 176 171 178
201 201 201 199 198 196 199 199 195 192 190 188 188 182 185 181 181 184 184 185 188 187 186 182 176 174 172 170 171 176 175 179 183 177 182 190 197 201 198 194 186 191
199 199 200 198 198 200 201 199 196 195 194 190 181 189 184 184 185 187 186 187 185 185 184 183 179 177 178 171 175 180 182 180 177 177 177 187 181 195 203 201 198 197
199 198 197 195 198 202 203 200 197 197 192 186 192 190 184 186 187 187 188 186 186 187 186 184 183 181 179 176 180 181 186 186 184 182 182 188 183 194 200 199 199 207
196 197 196 196 198 201 205 202 201 197 190 193 194 190 188 187 187 188 188 185 186 188 187 187 186 184 183 181 184 185 186 190 189 186 186 188 190 201 199 195 203 213
196 197 195 197 200 203 204 203 200 199 195 197 195 189 190 191 184 186 185 186 188 189 190 188 187 187 185 186 186 185 186 191 191 191 189 192 194 195 195 194 202 207
197 195 196 198 201 203 205 202 201 199 198 198 192 194 193 187 187 183 184 187 191 192 190 189 189 185 185 188 187 186 186 187 191 192 195 196 197 196 195 196 200 205
196 196 198 198 201 204 205 203 202 200 200 199 193 195 190 190 187 186 187 191 193 191 189 190 187 187 187 188 188 184 184 182 186 195 199 199 201 202 203 202 202 204
197 198 198 198 200 203 203 203 204 202 200 199 195 193 189 191 192 191 192 190 191 187 189 187 186 187 189 190 185 182 183 185 192 197 196 198 201 201 205 204 201 197
199 199 197 198 199 200 203 205 205 204 202 199 192 193 193 192 192 195 194 190 189 189 188 185 186 188 189 188 184 183 184 194 197 197 198 201 202 202 201 206 206 205
199 198 198 197 196 199 203 205 206 204 201 195 193 195 195 194 192 191 189 191 192 192 188 187 188 190 188 185 184 185 189 195 197 199 200 201 205 206 208 211 214 215
197 196 197 196 196 199 203 203 203 202 199 196 195 195 193 188 187 190 191 191 193 195 190 189 193 193 191 186 184 185 189 193 196 200 200 201 201 205 212 212 216 216
196 197 195 197 199 201 201 200 201 199 198 196 195 192 190 186 186 188 192 194 197 194 191 193 194 194 186 185 188 186 186 188 193 198 199 198 198 204 211 211 213 212
199 196 196 200 198 199 198 198 194 194 195 193 192 192 192 187 189 192 193 193 195 195 196 197 196 189 181 185 188 189 185 185 194 196 194 198 203 209 214 212 213 211
199 195 198 197 197 198 194 187 188 192 191 187 193 193 192 193 192 189 192 193 193 197 201 196 197 187 181 184 189 189 180 174 203 196 190 199 205 210 214 215 213 208
198 198 199 197 194 188 182 183 186 191 187 186 189 194 197 194 190 189 193 195 196 199 199 194 198 186 182 184 189 181 174 183 204 179 167 233 219 217 218 219 214 203
198 199 200 194 184 178 179 182 184 180 180 188 192 194 194 193 190 195 198 196 196 196 197 197 202 178 180 182 183 174 176 180 115 85 219 236 230 222 222 216 209 201
197 198 197 186 179 176 178 181 179 179 186 187 190 194 194 192 198 198 195 196 196 193 197 201 189 172 178 178 174 173 170 159 161 179 208 229 234 229 225 216 199 186
195 195 191 182 179 179 181 180 178 181 187 184 189 186 187 193 197 198 197 192 191 193 196 196 171 176 174 175 173 172 166 160 167 193 215 227 232 233 224 207 182 176
193 191 188 183 182 185 183 181 180 184 189 186 187 183 189 194 194 194 191 190 190 195 192 187 176 175 171 174 174 175 174 174 187 193 214 224 232 227 203 187 184 181
192 190 188 185 187 187 181 179 183 188 187 182 187 185 188 187 185 186 187 190 197 194 184 180 154 171 175 175 177 179 181 186 191 202 207 218 216 213 189 179 192 195
190 190 189 188 190 185 183 184 184 180 178 181 183 182 184 184 182 181 182 191 186 183 176 173 153 167 180 175 180 185 190 192 196 193 205 199 179 171 169 186 188 191